星链-36696(STARLINK-36696)

导读

STARLINK-36696是美国于2026年2月2日发射的星链系列卫星,归属于SpaceX公司的星链星座项目。星链项目旨在构建全球卫星互联网星座,为全球偏远、欠发达地区及地面网络覆盖不足区域提供低成本、高速率的宽带互联网接入服务,该卫星入轨后将助力星链星座进一步扩展全球网络覆盖范围。

Basic Information
目录编号:
67651
目录名称:
STARLINK-36696
国际标识:
2026-022D
轨道中心:
EARTH
卫星名称:
星链-36696
卫星全名:
星链-36696(STARLINK-36696)
卫星状态:
在轨 (已飞行214 天)
发射日期:
2026-02-02 UTC
国别 :
美国 (US)
星等 :
--
Orbit Information
数据来源 国际轨道数据
星历时间: 2026-09-03T20:38:29+0800
20小时前
查看轨道信息
半长轴: 6843.687km
偏心率: 0.0000997
轨道倾角: 97.284°
近地点辐角 110.915°
升交点赤经 278.297°
平近点角 249.220°
近地点: 464.867km
远地点: 466.233km
周期: 93.906分钟
每日圈数: 15.33443
Detailed Information
固有亮度:
5
最大亮度:
2.5
卫星平台:
Starlink V1.0
覆盖范围:
全球
运营商:
太空探索技术公司
运营商所在国:
美国
制造商(研发单位):
太空探索技术公司
制造商所在国:
美国
使用方式:
暂无
Satellite Introduction
Starlink 计划是 SpaceX 推出的全球卫星互联网项目,通过发射低轨道卫星,为全球尤其是偏远地区提供高速、低延迟的互联网服务。自 2019 年起,Starlink 已部署数千颗卫星,旨在缩小全球数字鸿沟,推动互联网普及。该项目还为军事、航空等行业提供通信支持,带来广泛经济效益。
2D Orbit Map
3D Orbit Map
Orbit Altitude Analysis Chart
Orbit Inclination Analysis Chart
Orbit Comprehensive Analysis Chart
View Comprehensive Chart
Conjunction Data List
Event ID Objects TCA Miss Dist (km) Collision Risk Probability Collision Risk Index (CRI) Action
CDM_260905-170701-412206-765121
2026-09-05T
17:07:16+0000
1.159 km
极远距离
1.648565E-5 中风险 0.59
CDM_260904-231404-779206-765121
2026-09-04T
23:14:36+0000
2.761 km
极远距离
1.474952E-6 低风险 0.38
CDM_260905-223405-235306-765121
2026-09-05T
22:34:02+0000
2.899 km
极远距离
1.395073E-6 低风险 0.38
CDM_260905-084305-111406-765121
2026-09-05T
08:43:20+0000
2.808 km
极远距离
1.22266E-6 低风险 0.37